Overview Statistics Trail Chart Weather Telemetry Raw packets
 

This is the latest recevied weather packets stored in our database for station/object WP3OF-2. If no packets are shown the sender has not sent any weather packets the latest 10 day(s).

<< 50 51 52 53 54 55 56 >>
Time Temp. Humidity Pressure Rain* Wind** Luminosity Snow
1788221028 20.56° C 99% 1026.3 hPa 0 mm - 0 W/m² -
1788220725 20.56° C 99% 1026.3 hPa 0 mm - 0 W/m² -
1788220422 20.56° C 99% 1026.3 hPa 0 mm - 0 W/m² -
1788220116 20.56° C 99% 1026.3 hPa 0 mm - 0 W/m² -
1788219811 21.11° C 99% 1026 hPa 0 mm - 0 W/m² -
1788219507 21.11° C 99% 1026.3 hPa 0 mm - 0 W/m² -
1788219202 21.11° C 99% 1026.3 hPa 0 mm - 0 W/m² -
1788218897 21.11° C 99% 1026 hPa 0 mm - 0 W/m² -
1788218593 21.11° C 99% 1026 hPa 0 mm - 0 W/m² -
1788218289 21.11° C 99% 1026.3 hPa 0 mm - 0 W/m² -
1788217985 21.11° C 99% 1026 hPa 0 mm - 0 W/m² -
1788217680 21.11° C 99% 1026 hPa 0 mm - 0 W/m² -
1788217375 21.11° C 99% 1026 hPa 0 mm - 0 W/m² -
1788217074 21.11° C 99% 1026 hPa 0 mm - 0 W/m² -
1788216770 21.11° C 99% 1026 hPa 0 mm - 0 W/m² -
1788216465 21.11° C 99% 1026 hPa 0 mm - 0 W/m² -
1788216160 21.11° C 99% 1025.6 hPa 0 mm - 2 W/m² -
1788215855 21.11° C 99% 1025.6 hPa 0 mm - 2 W/m² -
1788215551 21.11° C 99% 1026 hPa 0 mm - 5 W/m² -
1788215247 21.11° C 99% 1025.6 hPa 0 mm - 9 W/m² -
1788214943 21.11° C 99% 1025.6 hPa 0 mm - 13 W/m² -
1788214638 21.11° C 99% 1025.6 hPa 0 mm - 19 W/m² -
1788214333 21.11° C 99% 1025.6 hPa 0 mm - 24 W/m² -
1788214028 21.11° C 99% 1025.6 hPa 0 mm - 24 W/m² -
1788213723 21.11° C 99% 1025.2 hPa 0 mm - 46 W/m² -

* Rain latest hour (hover to see other rain measurements)
** Current wind speed in m/s (hover to see current wind gust speed)